Weather History for Perry, FL

Change the Weather History Date:

Monday, October 7, 2013

  Actual Average (KCTY) Record (KCTY)
Temperature  
Mean Temperature 79 °F 73 °F  
Max Temperature 89 °F 85 °F 93 °F (2012)
Min Temperature 71 °F 62 °F 43 °F (2010)
Degree Days  
Heating Degree Days 0 0  
Month to date heating degree days 0  
Since 1 July heating degree days 0  
Cooling Degree Days 14 9  
Month to date cooling degree days 66  
Year to date cooling degree days 2408  
Growing Degree Days 29 (Base 50)    
Moisture  
Dew Point 70 °F    
Average Humidity 81    
Maximum Humidity 100    
Minimum Humidity 57    
Precipitation  
Precipitation 0.05 in 0.15 in 0.35 in (2005)
Month to date precipitation 1.06  
Year to date precipitation 40.89  
Sea Level Pressure  
Sea Level Pressure 29.81 in    
Wind  
Wind Speed 4 mph (ENE)    
Max Wind Speed 9 mph    
Max Gust Speed -    
Visibility 10 miles    
Events Rain , Thunderstorm    
T = Trace of Precipitation, MM = Missing Value Source: NWS Daily Summary

Daily Weather History Graph

Daily Weather History Graph

Search for Another Location

Airport:

Trip Planner

Search our weather history database for the weather conditions in past years. The results will help you decide how hot, cold, wet, or windy it might be!

Date:

Astronomy

Oct. 07, 2013 Rise Set
Actual Time 7:31 AM EDT 7:12 PM EDT
Civil Twilight 7:07 AM EDT 7:36 PM EDT
Nautical Twilight 6:39 AM EDT 8:03 PM EDT
Astronomical Twilight 6:11 AM EDT 8:31 PM EDT
Moon 10:07 AM EDT (10/7) 9:10 PM EDT (10/7)
Length of Visible Light 12h 28m
Length of Day
11h 40m
Waxing Crescent, 8% of the Moon is Illuminated
Oct 7
Waxing Crescent
Oct 11
First Quarter
Oct 18
Full
Oct 26
Last Quarter
Nov 3
New

Hourly Weather History & Observations

Time (EDT) Temp. Heat Index Dew Point Humidity Pressure Visibility Wind Dir Wind Speed Gust Speed Precip Events Conditions
12:15 AM 71.6 °F - 69.8 °F 94% 29.86 in 10.0 mi SE 3.5 mph - N/A   Clear
12:35 AM 71.6 °F - 69.8 °F 94% 29.86 in 10.0 mi ESE 3.5 mph - N/A   Clear
12:53 AM 73.9 °F - 71.1 °F 91% 29.85 in - ESE 3.5 mph - N/A   Unknown
12:55 AM 71.6 °F - 69.8 °F 94% 29.86 in 10.0 mi ESE 3.5 mph - N/A   Clear
1:15 AM 71.6 °F - 69.8 °F 94% 29.86 in 10.0 mi ESE 4.6 mph - N/A   Clear
1:35 AM 71.6 °F - 69.8 °F 94% 29.86 in 10.0 mi ESE 5.8 mph - N/A   Clear
1:53 AM 73.9 °F - 70.0 °F 87% 29.84 in - ESE 5.8 mph - N/A   Unknown
1:55 AM 71.6 °F - 69.8 °F 94% 29.86 in 10.0 mi ESE 5.8 mph - N/A   Clear
2:15 AM 71.6 °F - 69.8 °F 94% 29.86 in 10.0 mi SE 4.6 mph - N/A   Clear
2:35 AM 71.6 °F - 69.8 °F 94% 29.84 in 10.0 mi ESE 3.5 mph - N/A   Clear
2:53 AM 73.9 °F - 70.0 °F 87% 29.82 in - ESE 6.9 mph - N/A   Unknown
2:55 AM 71.6 °F - 69.8 °F 94% 29.83 in 10.0 mi SE 5.8 mph - N/A   Clear
3:15 AM 71.6 °F - 69.8 °F 94% 29.82 in 10.0 mi ESE 4.6 mph - N/A   Clear
3:35 AM 71.6 °F - 69.8 °F 94% 29.82 in 10.0 mi SE 3.5 mph - N/A   Clear
3:53 AM 73.9 °F - 70.0 °F 87% 29.80 in - SE 4.6 mph - N/A   Unknown
3:55 AM 71.6 °F - 69.8 °F 94% 29.82 in 10.0 mi SE 3.5 mph - N/A   Clear
4:15 AM 71.6 °F - 69.8 °F 94% 29.82 in 10.0 mi Calm Calm - N/A   Clear
4:35 AM 71.6 °F - 69.8 °F 94% 29.80 in 10.0 mi ESE 3.5 mph - N/A   Mostly Cloudy
4:53 AM 73.9 °F - 70.0 °F 87% 29.79 in - ESE 3.5 mph - N/A   Unknown
4:55 AM 71.6 °F - 69.8 °F 94% 29.80 in 10.0 mi ESE 4.6 mph - N/A   Scattered Clouds
5:15 AM 71.6 °F - 69.8 °F 94% 29.80 in 10.0 mi ESE 4.6 mph - N/A   Clear
5:35 AM 71.6 °F - 69.8 °F 94% 29.81 in 10.0 mi SE 4.6 mph - N/A   Clear
5:53 AM 73.9 °F - 70.0 °F 87% 29.80 in - Calm Calm - N/A   Unknown
5:55 AM 71.6 °F - 69.8 °F 94% 29.82 in 10.0 mi Calm Calm - N/A Thunderstorm Scattered Clouds
6:15 AM 71.6 °F - 69.8 °F 94% 29.81 in 10.0 mi Calm Calm - N/A Rain Light Rain
6:35 AM 71.6 °F - 69.8 °F 94% 29.81 in 7.0 mi South 3.5 mph - 0.03 in Rain Heavy Rain
6:53 AM 73.9 °F - 71.1 °F 91% 29.80 in - ESE 3.5 mph - 0.05 in   Unknown
6:55 AM 71.6 °F - 69.8 °F 94% 29.81 in 10.0 mi ESE 3.5 mph - 0.04 in Rain Light Rain
7:15 AM 71.6 °F - 69.8 °F 94% 29.82 in 10.0 mi WSW 4.6 mph - N/A   Scattered Clouds
7:35 AM 71.6 °F - 69.8 °F 94% 29.83 in 10.0 mi Calm Calm - N/A   Mostly Cloudy
7:53 AM 73.9 °F - 71.1 °F 91% 29.82 in - Calm Calm - N/A   Unknown
7:55 AM 71.6 °F - 69.8 °F 94% 29.84 in 7.0 mi Calm Calm - N/A   Mostly Cloudy
8:15 AM 71.6 °F - 71.6 °F 100% 29.84 in 10.0 mi Calm Calm - N/A Rain Rain
8:35 AM 71.6 °F - 71.6 °F 100% 29.84 in 10.0 mi Calm Calm - N/A   Overcast
8:53 AM 75.0 °F - 71.1 °F 87% 29.83 in - East 4.6 mph - N/A   Unknown
8:55 AM 73.4 °F - 71.6 °F 94% 29.84 in 10.0 mi East 4.6 mph - N/A   Overcast
9:15 AM 73.4 °F - 71.6 °F 94% 29.83 in 10.0 mi ESE 4.6 mph - N/A   Overcast
9:35 AM 73.4 °F - 71.6 °F 94% 29.84 in 10.0 mi SE 5.8 mph - N/A   Scattered Clouds
9:53 AM 77.0 °F - 71.1 °F 82% 29.82 in - SE 5.8 mph - N/A   Unknown
9:55 AM 73.4 °F - 71.6 °F 94% 29.84 in 10.0 mi SE 5.8 mph - N/A   Clear
10:15 AM 75.2 °F - 69.8 °F 83% 29.84 in 10.0 mi SSE 3.5 mph - N/A   Clear
10:35 AM 77.0 °F - 71.6 °F 83% 29.83 in 10.0 mi ESE 3.5 mph - N/A   Clear
10:53 AM 82.0 °F 87.4 °F 73.0 °F 74% 29.82 in - SE 6.9 mph - N/A   Unknown
10:55 AM 78.8 °F - 71.6 °F 78% 29.84 in 10.0 mi SE 5.8 mph - N/A   Clear
11:15 AM 78.8 °F - 71.6 °F 78% 29.83 in 10.0 mi SE 5.8 mph - N/A   Scattered Clouds
11:35 AM 80.6 °F 83.9 °F 69.8 °F 70% 29.83 in 10.0 mi Calm Calm - N/A   Scattered Clouds
11:53 AM 82.9 °F 87.5 °F 71.1 °F 67% 29.81 in - Calm Calm - N/A   Unknown
11:55 AM 80.6 °F 83.9 °F 69.8 °F 70% 29.82 in 10.0 mi Calm Calm - N/A   Scattered Clouds
12:15 PM 80.6 °F 83.9 °F 69.8 °F 70% 29.82 in 10.0 mi Calm Calm - N/A   Scattered Clouds
12:35 PM 82.4 °F 86.3 °F 69.8 °F 66% 29.81 in 10.0 mi North 4.6 mph - N/A   Scattered Clouds
12:53 PM 84.9 °F 90.7 °F 72.0 °F 65% 29.79 in - Calm Calm - N/A   Unknown
12:55 PM 82.4 °F 86.3 °F 69.8 °F 66% 29.81 in 10.0 mi East 3.5 mph - N/A   Clear
1:15 PM 82.4 °F 86.3 °F 69.8 °F 66% 29.79 in 10.0 mi ENE 4.6 mph - N/A   Clear
1:35 PM 86.0 °F 90.4 °F 69.8 °F 58% 29.79 in 10.0 mi ENE 3.5 mph - N/A   Clear
1:53 PM 86.0 °F 91.5 °F 71.1 °F 61% 29.77 in - ENE 4.6 mph - N/A   Unknown
1:55 PM 84.2 °F 88.4 °F 69.8 °F 62% 29.78 in 10.0 mi ENE 4.6 mph - N/A   Scattered Clouds
2:15 PM 82.4 °F 86.3 °F 69.8 °F 66% 29.77 in 10.0 mi NE 4.6 mph - N/A   Mostly Cloudy
2:35 PM 82.4 °F 86.3 °F 69.8 °F 66% 29.77 in 10.0 mi NNE 4.6 mph - N/A   Mostly Cloudy
2:53 PM 84.9 °F 90.1 °F 71.1 °F 63% 29.75 in - NNE 3.5 mph - N/A   Unknown
2:55 PM 82.4 °F 86.3 °F 69.8 °F 66% 29.76 in 10.0 mi NNE 3.5 mph - N/A   Mostly Cloudy
3:15 PM 82.4 °F 86.3 °F 69.8 °F 66% 29.76 in 10.0 mi ENE 3.5 mph - N/A   Mostly Cloudy
3:35 PM 82.4 °F 86.3 °F 69.8 °F 66% 29.75 in 10.0 mi NE 4.6 mph - N/A   Scattered Clouds
3:53 PM 86.0 °F 90.7 °F 70.0 °F 59% 29.75 in - NE 3.5 mph - N/A   Unknown
3:55 PM 82.4 °F 86.3 °F 69.8 °F 66% 29.76 in 10.0 mi NNE 4.6 mph - N/A   Scattered Clouds
4:15 PM 84.2 °F 88.4 °F 69.8 °F 62% 29.76 in 10.0 mi North 3.5 mph - N/A   Mostly Cloudy
4:35 PM 82.4 °F 86.3 °F 69.8 °F 66% 29.77 in 10.0 mi NNW 6.9 mph - N/A   Overcast
4:53 PM 82.9 °F 88.8 °F 73.0 °F 72% 29.75 in - Calm Calm - N/A   Unknown
4:55 PM 80.6 °F 84.6 °F 71.6 °F 74% 29.77 in 10.0 mi NNE 3.5 mph - N/A   Mostly Cloudy
5:15 PM 80.6 °F 84.6 °F 71.6 °F 74% 29.76 in 10.0 mi Calm Calm - N/A   Scattered Clouds
5:35 PM 82.4 °F 87.2 °F 71.6 °F 70% 29.77 in 10.0 mi NNE 3.5 mph - N/A Rain Light Rain
5:53 PM 87.1 °F 92.0 °F 70.0 °F 57% 29.75 in - North 5.8 mph - N/A   Unknown
5:55 PM 84.2 °F 88.4 °F 69.8 °F 62% 29.77 in 10.0 mi North 5.8 mph - N/A   Scattered Clouds
6:15 PM 82.4 °F 86.3 °F 69.8 °F 66% 29.77 in 10.0 mi North 4.6 mph - N/A   Mostly Cloudy
6:35 PM 82.4 °F 87.2 °F 71.6 °F 70% 29.78 in 10.0 mi Calm Calm - N/A   Overcast
6:53 PM 84.0 °F 88.4 °F 70.0 °F 63% 29.77 in - Calm Calm - N/A   Unknown
6:55 PM 82.4 °F 86.3 °F 69.8 °F 66% 29.78 in 10.0 mi Calm Calm - N/A   Overcast
7:15 PM 80.6 °F 83.9 °F 69.8 °F 70% 29.79 in 10.0 mi Calm Calm - N/A   Scattered Clouds
7:35 PM 78.8 °F - 71.6 °F 78% 29.79 in 10.0 mi North 5.8 mph - N/A   Mostly Cloudy
7:53 PM 81.0 °F 84.9 °F 71.1 °F 72% 29.79 in - North 5.8 mph - N/A   Unknown
7:55 PM 78.8 °F - 71.6 °F 78% 29.80 in 10.0 mi North 4.6 mph - N/A   Overcast
8:15 PM 78.8 °F - 71.6 °F 78% 29.81 in 10.0 mi NNE 3.5 mph - N/A   Mostly Cloudy
8:35 PM 77.0 °F - 71.6 °F 83% 29.82 in 10.0 mi Calm Calm - N/A   Mostly Cloudy
8:53 PM 79.0 °F - 72.0 °F 79% 29.82 in - North 5.8 mph - N/A   Unknown
8:55 PM 77.0 °F - 71.6 °F 83% 29.83 in 10.0 mi North 4.6 mph - N/A   Overcast
9:15 PM 77.0 °F - 71.6 °F 83% 29.84 in 10.0 mi North 3.5 mph - N/A   Overcast
9:35 PM 77.0 °F - 71.6 °F 83% 29.84 in 10.0 mi North 5.8 mph - N/A   Overcast
9:53 PM 79.0 °F - 70.0 °F 74% 29.84 in - North 9.2 mph - N/A   Unknown
9:55 PM 77.0 °F - 69.8 °F 78% 29.85 in 10.0 mi NNE 9.2 mph - N/A   Overcast
10:15 PM 77.0 °F - 69.8 °F 78% 29.86 in 10.0 mi NNE 6.9 mph - N/A   Overcast
10:35 PM 77.0 °F - 69.8 °F 78% 29.86 in 10.0 mi NNE 6.9 mph - N/A   Overcast
10:53 PM 77.0 °F - 69.1 °F 76% 29.85 in - North 8.1 mph - N/A   Unknown
10:55 PM 75.2 °F - 69.8 °F 83% 29.86 in 10.0 mi North 5.8 mph - N/A   Mostly Cloudy
11:15 PM 73.4 °F - 69.8 °F 88% 29.86 in 10.0 mi North 3.5 mph - N/A   Scattered Clouds
11:35 PM 73.4 °F - 69.8 °F 88% 29.86 in 10.0 mi NNE 3.5 mph - N/A   Mostly Cloudy
11:53 PM 75.9 °F - 69.1 °F 79% 29.85 in - NNE 5.8 mph - N/A   Unknown
11:55 PM 73.4 °F - 69.8 °F 88% 29.86 in 10.0 mi NNE 5.8 mph - N/A   Mostly Cloudy